STARLINK-3273 (50191 NORAD) Tracking and Keplerian Element Data

This shows tracking and keplerian element data for the satellite.

Feedback or suggestion? Click here.




ElementValue
Catalog50191
NameSTARLINK-3273
Epoch Orbit2370
Epoch Day140.91667824
Epoch Year2022
RAAN13.5818
Inclination53.2155
Eccentricity0.0002285
Argument of Perigee32.2729
Mean Anonmoly290.834
Mean Motion15.088271
Decay Rate7.685E-05
L11 50191U 21125AM 22140.91667824 .00007685 00000+0 50058-3 0 9995
L22 50191 53.2155 13.5818 0002285 32.2729 290.8340 15.08827100 23707

Live tracking and technical data element details for STARLINK-3273 (NORAD 50191). STARLINK-3273 can be tracked NOW for your location showing map with azimuth and elevation plus other details from your city location.

Track the satellite on the map from your city or location and see movement details for azimuth, elevation, latitude, longitude, range, height, and movement on the map or in text.







IsCatalogInMostPopularTable: catalog: 50191, numindb: 22
Update: records affected: 1



GetName: 50191 STARLINK-3273

Hit Count: updated at: Mon, 23 May 2022 21:32:46 GMT